RADUGA 29 [-]

Last updated on Tue Jun 27 2023 00:03:02 GMT+0000 (Coordinated Universal Time)

1 22557U 93013A 23176.81280441 -.00000346 00000+0 00000+0 0 9996 2 22557 14.4341 353.3098 0008191 123.9086 218.0257 1.00312275110793
UTC large
Height (km)
Speed (km/s)
/
Latitude / Longitude
Inclination (degrees)
Orbital Period (minutes)
Azimuth
Elevation
Range (km)
Doppler Factor

Next 0 passes for location: London (51.5072 / 0.1276)

Sorry there are no passes over London.